STARLINK-1848, 46740

Orbit data source: Space-Track

STARLINK-1848, 46740 is a payload satellite owned by SpaceX/Seattle (US) in LEO that was launched on Sat, 24 Oct 2020 UTC via an FALCON 9 launch vehicle from the Air Force Eastern Test Range (AFETR). Payloads include a variety of satellites, spacecraft, and rockets equipped with specific instruments for various scientific and technological missions. These include communications satellites like Starlink; space stations such as the ISS; scientific satellites like the Hubble; Earth observation satellites from companies like Planet Labs, Umbra, and HawkEye 360; GPS; miniature CubeSats for education and research; and military/defense satellites.

Loading next visibility...
STARLINK-1848 details
Identifier
46740, 2020-074B
Orbit
LEO
Last TLE update7 hours ago
Origin
Flag of USSpaceX/Seattle (US)
ManufacturerSpaceX/Seattle
MissionOperational Commercial Communications
Bus & MotorSTARLINK, Unknown motor
Mass260 kg wet, ~248 kg dry
Launch date (UTC)
2020-10-24 (4 years ago)
Launch vehicle
FALCON 9
Launch site
Air Force Eastern Test Range (AFETR)
Object type
Payload
Rocket body
Debris
Shape & HBRBox + 1 Pan, 8.86 m
Radar Cross Section13.562 m², Large (>1 m²)

Expand to show TLE details & history

TLE from 7 hours ago
0 STARLINK-1848
1 46740U 20074B   24340.13283103  .00015015  00000-0  10240-2 0  9999
2 46740  53.0539 229.6483 0001324  81.3010 278.8129 15.06426987227359
Epoch: 2024-12-05T03:11Z
Definitive object data (Epoch: 2024-12-05T03:11:16.6Z)
Latitude-0.00004°
Longitude107.41109°
Altitude547.868 km
Speed7.589 km/s
True Right ascension15h 18m 35s
True Declination0° 00' 00"
Sunlit
Object was in daylight at TLE epoch
Visualization TLE readout
Latitude7.9553°
Longitude-79.92093°
Altitude547.263 km
Speed7.59 km/s
Apparent Right ascension00h 16m 34s
Apparent Declination-21° 40' 16"
Sunlit
Object is in full shadow
Visualization observer readout
Local Sidereal Time08:16:52
Azimuth271.111° WNW
Elevation-36.452°
Doppler factor1
Orbital elements
Apogee altitude548.317 km
Perigee altitude546.483 km
Semi-major axis6,925.537 km
Eccentricity0.0001324
Inclination53.0539°
RAAN229.6483°
Arg. of periapsis81.301°
True anomaly278.79791°
Mean anomaly278.8129°
Eccentric anomaly278.8054°
Mean motion3.76585 °/min
BSTAR0.001024
Orbital period95.6 mins
Loading maneuver chart data...

STARLINK-1848 Visibility forecast

Observer location: undefined°, undefined

Span
Click to sort rows by Start time (UTC) header in descending order
Start Az.
Max El. time (UTC)
Max El. Az.
Max El.
End time (UTC)
End Az.
7 mins2024-12-05 19:16:30.205Z213.199° SW2024-12-05 19:19:30.205Z165.507° S39.117°2024-12-05 19:23:30.205Z58.401° ENE
5 mins2024-12-05 20:57:30.205Z288.72° WNW2024-12-05 20:59:30.205Z329.247° NNW23.969°2024-12-05 21:02:30.205Z26.614° NE
4 mins2024-12-06 00:19:30.205Z347.247° N2024-12-06 00:21:30.205Z22.193° NNE16.551°2024-12-06 00:23:30.205Z54.122° ENE
6 mins2024-12-06 01:58:30.205Z320.002° NNW2024-12-06 02:01:30.205Z42.321° NE40.498°2024-12-06 02:04:30.205Z113.389° SE
4 mins2024-12-06 03:39:30.205Z253.543° W2024-12-06 03:40:30.205Z234.356° WSW18.228°2024-12-06 03:43:30.205Z186.544° SSW
|